WetterOnline ( https://www.wetteronline.de )

Wetter aktuell Mühldorf

Aktuelles Wetter: Mühldorf am Inn (410m)

6-stündlich | Neueste Meldungen
Ortszeit Temperatur Wetter
Di, 07.07. 8:00 12.8° C wolkenlos
Di, 07.07. 2:00 9.6° C wolkenlos
Mo, 06.07. 20:00 18.9° C wolkenlos
Mo, 06.07. 14:00 19.3° C bewölkt
Mo, 06.07. 8:00 20.8° C wolkenlos
Mo, 06.07. 2:00 15.9° C wolkenlos
So, 05.07. 20:00 25.8° C wolkenlos
So, 05.07. 14:00 25.7° C leicht bewölkt
Ortszeit Temperatur Wetter
Di, 07.07. 8:00 12.8° C wolkenlos
Di, 07.07. 7:50 12.8° C wolkenlos
Di, 07.07. 7:40 12.4° C wolkenlos
Di, 07.07. 7:30 11.5° C wolkenlos
Di, 07.07. 7:20 11.5° C wolkenlos
Di, 07.07. 7:10 10.6° C fast wolkenlos
Di, 07.07. 7:00 9.2° C leicht bewölkt
Di, 07.07. 6:30 8.1° C leicht bewölkt
Di, 07.07. 6:00 8.3° C leicht bewölkt
Di, 07.07. 5:30 8.2° C bewölkt
Di, 07.07. 5:00 9.2° C wolkig
Ortszeit Relative Feuchte Sichtweite
Di, 07.07. 8:00 72% 45 km
Di, 07.07. 2:00 85% 45 km
Mo, 06.07. 20:00 42% >70 km
Mo, 06.07. 14:00 59% >70 km
Mo, 06.07. 8:00 75% >70 km
Mo, 06.07. 2:00 96% 55 km
So, 05.07. 20:00 56% 55 km
So, 05.07. 14:00 46% >70 km
Ortszeit Relative Feuchte Sichtweite
Di, 07.07. 8:00 72% 45 km
Di, 07.07. 7:50 72% -
Di, 07.07. 7:40 75% -
Di, 07.07. 7:30 77% 50 km
Di, 07.07. 7:20 77% -
Di, 07.07. 7:10 83% -
Di, 07.07. 7:00 87% 35 km
Di, 07.07. 6:30 93% 35 km
Di, 07.07. 6:00 90% 40 km
Di, 07.07. 5:30 91% 35 km
Di, 07.07. 5:00 86% 40 km
Ortszeit Niederschlagsmenge Niederschlagsart
Di, 07.07. 8:00 0.0 l/m2 in 12 Std. -
Di, 07.07. 2:00 0.0 l/m2 in 6 Std. -
Mo, 06.07. 20:00 0.1 l/m2 in 12 Std. Regen
Mo, 06.07. 14:00 0.1 l/m2 in 6 Std. Regen
Mo, 06.07. 8:00 0.0 l/m2 in 12 Std. -
Mo, 06.07. 2:00 0.0 l/m2 in 6 Std. -
So, 05.07. 20:00 0.0 l/m2 in 12 Std. -
So, 05.07. 14:00 0.0 l/m2 in 6 Std. -
Ortszeit Niederschlagsmenge Niederschlagsart
Di, 07.07. 8:00 0.0 l/m2 in 1 Std. -
Di, 07.07. 7:50 keine Meldung -
Di, 07.07. 7:40 keine Meldung -
Di, 07.07. 7:30 0.0 l/m2 in 1 Std. -
Di, 07.07. 7:20 keine Meldung -
Di, 07.07. 7:10 keine Meldung -
Di, 07.07. 7:00 0.0 l/m2 in 1 Std. -
Di, 07.07. 6:30 0.0 l/m2 in 1 Std. -
Di, 07.07. 6:00 0.0 l/m2 in 1 Std. -
Di, 07.07. 5:30 0.0 l/m2 in 1 Std. -
Di, 07.07. 5:00 0.0 l/m2 in 1 Std. -
Ortszeit Stärke Spitze Richtung
km/h Bft. km/h Grad Sektor
Di, 07.07. 8:00 4 1 11 260° W
Di, 07.07. 2:00 6 1 39 280° W
Mo, 06.07. 20:00 26 4 48 310° NW
Mo, 06.07. 14:00 22 4 47 300° NW
Mo, 06.07. 8:00 7 2 11 250° W
Mo, 06.07. 2:00 4 1 14 330° NW
So, 05.07. 20:00 9 2 35 280° W
So, 05.07. 14:00 18 3 36 280° W
Ortszeit Stärke Spitze Richtung
km/h Bft. km/h Grad Sektor
Di, 07.07. 8:00 4 1 7 260° W
Di, 07.07. 7:50 4 1 - 260° W
Di, 07.07. 7:40 4 1 - 260° W
Di, 07.07. 7:30 4 1 7 240° SW
Di, 07.07. 7:20 4 1 - 240° SW
Di, 07.07. 7:10 4 1 - 240° SW
Di, 07.07. 7:00 4 1 4 280° W
Di, 07.07. 6:30 0 0 4 - -
Di, 07.07. 6:00 0 0 7 - -
Di, 07.07. 5:30 4 1 7 40° NO
Di, 07.07. 5:00 6 1 9 260° W
Ortszeit Untergrenze Bedeckung Gattung
total tief tief mittel hoch
Di, 07.07. 8:00 - 0/8 0/8 - - -
Di, 07.07. 2:00 - 0/8 0/8 - - -
Mo, 06.07. 20:00 - 0/8 0/8 - - -
Mo, 06.07. 14:00 1200 m 7/8 7/8 - - -
Mo, 06.07. 8:00 - 0/8 0/8 - - -
Mo, 06.07. 2:00 - 0/8 0/8 - - -
So, 05.07. 20:00 - 0/8 0/8 - - -
So, 05.07. 14:00 2400 m 3/8 3/8 - - -
Ortszeit Bedeckungsgrad in Achtel und Wolkenuntergrenze
Di, 07.07. 8:00 keine Wolken
Di, 07.07. 7:50 keine Wolken
Di, 07.07. 7:40 keine Wolken
Di, 07.07. 7:30 keine Wolken
Di, 07.07. 7:20 keine Wolken
Di, 07.07. 7:10 1(2400m)
Di, 07.07. 7:00 2(2700m)
Di, 07.07. 6:30 3(2700m)
Di, 07.07. 6:00 2(2700m)
Di, 07.07. 5:30 7(2700m)
Di, 07.07. 5:00 6(2700m)
Ortszeit Luftdruck NN (hPa) Tendenz (hPa in 3 Std.)
Di, 07.07. 8:00 1023 + 0,8
Di, 07.07. 2:00 1022 + 1,4
Mo, 06.07. 20:00 1017 + 1,9
Mo, 06.07. 14:00 1015 + 1,0
Mo, 06.07. 8:00 1012 - 1,0
Mo, 06.07. 2:00 1015 - 0,1
So, 05.07. 20:00 1013 - 0,9
So, 05.07. 14:00 1016 - 1,5
Ortszeit Luftdruck NN (hPa) Tendenz (hPa in 3 Std.)
Di, 07.07. 8:00 1023 + 0,8
Di, 07.07. 7:50 1023 keine Meldung
Di, 07.07. 7:40 1023 keine Meldung
Di, 07.07. 7:30 1023 + 0,9
Di, 07.07. 7:20 1023 keine Meldung
Di, 07.07. 7:10 1023 keine Meldung
Di, 07.07. 7:00 1023 + 0,9
Di, 07.07. 6:30 1023 + 1,0
Di, 07.07. 6:00 1023 + 0,8
Di, 07.07. 5:30 1023 + 0,4
Di, 07.07. 5:00 1022 0,0
Ortszeit Schneehöhe (cm)
Di, 07.07. 8:00 -
Di, 07.07. 2:00 -
Mo, 06.07. 20:00 -
Mo, 06.07. 14:00 -
Mo, 06.07. 8:00 -
Mo, 06.07. 2:00 -
So, 05.07. 20:00 -
So, 05.07. 14:00 -
Ortszeit Schneehöhe (cm)
Di, 07.07. 8:00 -
Di, 07.07. 7:50 -
Di, 07.07. 7:40 -
Di, 07.07. 7:30 -
Di, 07.07. 7:20 -
Di, 07.07. 7:10 -
Di, 07.07. 7:00 -
Di, 07.07. 6:30 -
Di, 07.07. 6:00 -
Di, 07.07. 5:30 -
Di, 07.07. 5:00 -
Link zu dieser Seite / Seite empfehlen

Das Wetter in ...